Madison, MN

4:12 AM CDT on July 26, 2017 (GMT -0500)
Madison-Lac Qui Parle County

Weather History for KDXX - October, 2011

Change the Weather History Date:

Saturday, October 8, 2011

  Actual Average (KAQP) Record (KAQP)
Temperature  
Mean Temperature 60 °F -  
Max Temperature 62 °F 60 °F 86 °F (2010)
Min Temperature 57 °F 37 °F 17 °F (2000)
Degree Days  
Heating Degree Days 4    
Growing Degree Days 10 (Base 50)    
Moisture  
Dew Point 58 °F    
Average Humidity 91    
Maximum Humidity 100    
Minimum Humidity 72    
Precipitation  
Precipitation 0.08 in - - ()
Sea Level Pressure  
Sea Level Pressure 29.99 in    
Wind  
Wind Speed 5 mph (NW)    
Max Wind Speed 10 mph    
Max Gust Speed -    
Visibility 10 miles    
Events Rain    
Averages and records for this station are not official NWS values.
T = Trace of Precipitation, MM = Missing Value Source: NWS Daily Summary

Daily Weather History Graph

Daily Weather History Graph

Search for Another Location

Airport or City:

Trip Planner

Search our weather history database for the weather conditions in past years. The results will help you decide how hot, cold, wet, or windy it might be!

Date:

Astronomy

Oct. 08, 2011 Rise Set
Actual Time 7:31 AM CDT 6:52 PM CDT
Civil Twilight 7:01 AM CDT 7:21 PM CDT
Nautical Twilight 6:27 AM CDT 7:55 PM CDT
Astronomical Twilight 5:53 AM CDT 8:30 PM CDT
Moon 5:09 PM CDT (10/8) 4:12 AM CDT (10/8)
Length of Visible Light 12h 20m
Length of Day
11h 21m
Waxing Gibbous, 90% of the Moon is Illuminated
Oct 8
Waxing Gibbous
Oct 11
Full
Oct 19
Last Quarter
Oct 26
New
Nov 2
First Quarter

Hourly Weather History & Observations

Time (CDT) Temp. Dew Point Humidity Pressure Visibility Wind Dir Wind Speed Gust Speed Precip Events Conditions
12:13 AM 60.8 °F 55.4 °F 82% 29.81 in 10.0 mi SW 9.2 mph - N/A   Overcast
12:34 AM 62.6 °F 53.6 °F 72% 29.85 in 10.0 mi WSW 6.9 mph - N/A   Mostly Cloudy
1:14 AM 60.8 °F 55.4 °F 82% 29.86 in 10.0 mi SW 8.1 mph - N/A   Overcast
1:33 AM 60.8 °F 57.2 °F 88% 29.87 in 10.0 mi SW 9.2 mph - N/A   Mostly Cloudy
1:54 AM 60.8 °F 57.2 °F 88% 29.87 in 10.0 mi SW 8.1 mph - N/A   Overcast
2:13 AM 60.8 °F 57.2 °F 88% 29.87 in 10.0 mi SSW 6.9 mph - N/A   Mostly Cloudy
2:34 AM 60.8 °F 57.2 °F 88% 29.88 in 10.0 mi SSW 6.9 mph - N/A   Mostly Cloudy
2:54 AM 60.8 °F 59.0 °F 94% 29.87 in 10.0 mi SSW 4.6 mph - N/A   Scattered Clouds
3:33 AM 60.8 °F 60.8 °F 100% 29.87 in 10.0 mi SSE 5.8 mph - N/A   Scattered Clouds
3:54 AM 60.8 °F 60.8 °F 100% 29.89 in 10.0 mi South 6.9 mph - N/A   Mostly Cloudy
4:14 AM 60.8 °F 60.8 °F 100% 29.90 in 10.0 mi SSW 5.8 mph - N/A   Mostly Cloudy
4:33 AM 60.8 °F 60.8 °F 100% 29.90 in 10.0 mi Calm Calm - N/A   Clear
4:54 AM 60.8 °F 60.8 °F 100% 29.92 in 10.0 mi Calm Calm - N/A   Clear
5:14 AM 60.8 °F 60.8 °F 100% 29.93 in 10.0 mi SW 4.6 mph - N/A   Clear
5:33 AM 62.6 °F 60.8 °F 94% 29.93 in 10.0 mi Calm Calm - N/A   Scattered Clouds
5:54 AM 60.8 °F 60.8 °F 100% 29.94 in 10.0 mi West 4.6 mph - N/A Rain Rain
6:13 AM 60.8 °F 60.8 °F 100% 29.96 in 10.0 mi West 6.9 mph - N/A Rain Light Rain
6:34 AM 60.8 °F 60.8 °F 100% 29.96 in 10.0 mi West 9.2 mph - 0.01 in Rain Light Rain
6:54 AM 60.8 °F 60.8 °F 100% 29.95 in 10.0 mi WNW 10.4 mph - 0.03 in Rain Rain
6:55 AM 60.8 °F 60.8 °F 100% 29.95 in 10.0 mi WNW 10.4 mph - 0.03 in Rain Rain
7:13 AM 60.8 °F 59.0 °F 94% 29.96 in 10.0 mi Calm Calm - 0.02 in Rain Light Rain
7:34 AM 60.8 °F 57.2 °F 88% 29.95 in 10.0 mi Calm Calm - 0.02 in Rain Light Rain
7:54 AM 59.0 °F 57.2 °F 94% 29.97 in 10.0 mi Calm Calm - 0.02 in   Mostly Cloudy
7:55 AM 59.0 °F 57.2 °F 94% 29.97 in 10.0 mi Calm Calm - 0.02 in   Mostly Cloudy
8:13 AM 59.0 °F 59.0 °F 100% 29.95 in 10.0 mi North 3.5 mph - N/A   Overcast
8:34 AM 59.0 °F 57.2 °F 94% 29.96 in 10.0 mi Calm Calm - N/A   Overcast
8:54 AM 60.8 °F 57.2 °F 88% 29.99 in 10.0 mi Calm Calm - N/A Rain Light Rain
9:14 AM 60.8 °F 59.0 °F 94% 30.00 in 10.0 mi Calm Calm - 0.01 in Rain Light Rain
9:34 AM 60.8 °F 57.2 °F 88% 30.01 in 10.0 mi Calm Calm - 0.02 in Rain Light Rain
9:53 AM 59.0 °F 57.2 °F 94% 30.00 in 10.0 mi WNW 3.5 mph - 0.03 in Rain Light Rain
10:14 AM 59.0 °F 57.2 °F 94% 29.98 in 10.0 mi Calm Calm - N/A Rain Light Rain
10:34 AM 59.0 °F 57.2 °F 94% 30.01 in 10.0 mi Calm Calm - N/A   Mostly Cloudy
11:14 AM 59.0 °F 57.2 °F 94% 30.04 in 10.0 mi WNW 3.5 mph - N/A   Overcast
11:33 AM 59.0 °F 57.2 °F 94% 30.05 in 10.0 mi WNW 8.1 mph - N/A   Overcast
11:54 AM 59.0 °F 57.2 °F 94% 30.05 in 10.0 mi NW 5.8 mph - N/A   Overcast
12:14 PM 60.8 °F 55.4 °F 82% 30.02 in 10.0 mi North 5.8 mph - N/A   Overcast
12:33 PM 60.8 °F 55.4 °F 82% 30.02 in 10.0 mi North 5.8 mph - N/A   Overcast
12:54 PM 60.8 °F 55.4 °F 82% 30.04 in 10.0 mi NNE 3.5 mph - N/A   Overcast
1:14 PM 60.8 °F 55.4 °F 82% 30.04 in 10.0 mi Calm Calm - N/A   Overcast
1:33 PM 62.6 °F 55.4 °F 77% 30.04 in 10.0 mi NNE 3.5 mph - N/A   Overcast
2:14 PM 62.6 °F 55.4 °F 77% 30.04 in 10.0 mi North 4.6 mph - N/A   Mostly Cloudy
2:33 PM 62.6 °F 55.4 °F 77% 30.04 in 10.0 mi Calm Calm - N/A   Overcast
2:54 PM 62.6 °F 57.2 °F 82% 30.04 in 10.0 mi NNW 3.5 mph - N/A   Overcast
3:14 PM 62.6 °F 57.2 °F 82% 30.03 in 10.0 mi North 3.5 mph - N/A   Mostly Cloudy
3:34 PM 62.6 °F 57.2 °F 82% 30.04 in 10.0 mi NNW 4.6 mph - N/A   Mostly Cloudy
3:54 PM 62.6 °F 57.2 °F 82% 30.05 in 10.0 mi NNW 5.8 mph - N/A   Scattered Clouds
4:14 PM 62.6 °F 57.2 °F 82% 30.04 in 10.0 mi NNW 3.5 mph - N/A   Scattered Clouds
4:33 PM 62.6 °F 57.2 °F 82% 30.05 in 10.0 mi NW 3.5 mph - N/A   Mostly Cloudy
4:54 PM 62.6 °F 59.0 °F 88% 30.05 in 10.0 mi Calm Calm - N/A   Overcast
5:14 PM 62.6 °F 59.0 °F 88% 30.05 in 10.0 mi Calm Calm - N/A   Overcast
5:33 PM 62.6 °F 59.0 °F 88% 30.05 in 10.0 mi Calm Calm - N/A   Overcast
5:54 PM 62.6 °F 60.8 °F 94% 30.05 in 10.0 mi Calm Calm - N/A   Overcast
6:14 PM 62.6 °F 60.8 °F 94% 30.06 in 10.0 mi Calm Calm - N/A   Overcast
6:33 PM 62.6 °F 60.8 °F 94% 30.07 in 10.0 mi Calm Calm - N/A   Overcast
7:33 PM 60.8 °F 60.8 °F 100% 30.09 in 10.0 mi Calm Calm - N/A Rain Rain
7:54 PM 60.8 °F 60.8 °F 100% 30.09 in 10.0 mi Calm Calm - N/A Rain Rain
8:14 PM 60.8 °F 60.8 °F 100% 30.09 in 10.0 mi North 3.5 mph - N/A   Overcast
8:33 PM 60.8 °F 59.0 °F 94% 30.09 in 10.0 mi NNE 3.5 mph - N/A   Overcast
8:54 PM 59.0 °F 59.0 °F 100% 30.08 in 10.0 mi ENE 9.2 mph - N/A   Mostly Cloudy
9:14 PM 59.0 °F 59.0 °F 100% 30.10 in 10.0 mi North 4.6 mph - N/A   Mostly Cloudy
9:33 PM 59.0 °F 57.2 °F 94% 30.12 in 10.0 mi North 5.8 mph - N/A   Scattered Clouds
9:54 PM 57.2 °F 57.2 °F 100% 30.13 in 10.0 mi NNW 5.8 mph - N/A   Scattered Clouds
10:14 PM 59.0 °F 59.0 °F 100% 30.14 in 10.0 mi NW 3.5 mph - N/A   Mostly Cloudy
10:33 PM 59.0 °F 59.0 °F 100% 30.14 in 10.0 mi NNW 5.8 mph - N/A   Overcast
10:54 PM 59.0 °F 57.2 °F 94% 30.15 in 10.0 mi NNW 11.5 mph - N/A   Overcast
11:14 PM 59.0 °F 55.4 °F 88% 30.15 in 10.0 mi North 10.4 mph - N/A   Overcast
11:33 PM 59.0 °F 53.6 °F 82% 30.15 in 10.0 mi North 10.4 mph - N/A   Overcast
11:54 PM 59.0 °F 53.6 °F 82% 30.16 in 10.0 mi North 8.1 mph - N/A   Mostly Cloudy